Volver al catálogo

STARLINK-31365

ActivoComunicacionesVLEO
NORAD 58973·PAYLOAD·🇺🇸 United States

Lanzado Feb 15, 2024 desde Vandenberg Space Force Base

Loading…

Próximos Pases (próximas 24 horas)

TLE

ActualizadoSource: CelesTrak SupGP

Época: Sep 15, 2026, 02:07 UTC

1 58973C 24031J   26258.08868056  .00038358  00000+0  11335-2 0  2585
2 58973  53.1562 134.7559 0001331  85.5537 217.1720 15.34366589    12

Sigue STARLINK-31365 en tiempo real con AllMySat

Download on the App Store